TimeEST,TemperatureF,Dew PointF,Humidity,Sea Level PressureIn,VisibilityMPH,Wind Direction,Wind SpeedMPH,Gust SpeedMPH,PrecipitationIn,Events,Conditions,WindDirDegrees,DateUTC
12:53 AM,30.9,18.0,59,29.89,10.0,WSW,3.5,-,N/A,,Clear,250,2012-12-24 05:53:00
1:53 AM,32.0,18.0,56,29.91,10.0,WSW,5.8,-,N/A,,Clear,240,2012-12-24 06:53:00
2:53 AM,32.0,18.0,56,29.92,10.0,WSW,6.9,-,N/A,,Clear,250,2012-12-24 07:53:00
3:53 AM,30.9,18.0,59,29.92,10.0,West,4.6,-,N/A,,Clear,260,2012-12-24 08:53:00
4:53 AM,26.1,18.0,71,29.93,10.0,SW,4.6,-,N/A,,Clear,220,2012-12-24 09:53:00
5:53 AM,23.0,17.1,78,29.96,10.0,Calm,Calm,-,N/A,,Clear,0,2012-12-24 10:53:00
6:53 AM,21.9,17.1,82,30.00,10.0,Calm,Calm,-,N/A,,Clear,0,2012-12-24 11:53:00
7:53 AM,24.1,19.0,81,30.02,10.0,Calm,Calm,-,N/A,,Clear,0,2012-12-24 12:53:00
8:53 AM,33.1,21.0,61,30.06,10.0,West,8.1,-,N/A,,Clear,260,2012-12-24 13:53:00
9:53 AM,37.0,18.0,46,30.05,10.0,NW,11.5,-,N/A,,Clear,320,2012-12-24 14:53:00
10:53 AM,37.9,18.0,45,30.05,10.0,West,10.4,-,N/A,,Clear,260,2012-12-24 15:53:00
11:53 AM,39.9,17.1,40,30.03,10.0,West,8.1,-,N/A,,Clear,280,2012-12-24 16:53:00
12:53 PM,39.0,16.0,39,30.02,10.0,WSW,6.9,-,N/A,,Clear,240,2012-12-24 17:53:00
1:53 PM,41.0,16.0,36,30.03,10.0,WSW,6.9,-,N/A,,Clear,250,2012-12-24 18:53:00
2:53 PM,39.0,15.1,38,30.05,10.0,WNW,6.9,-,N/A,,Clear,300,2012-12-24 19:53:00
3:53 PM,37.9,15.1,39,30.04,10.0,Calm,Calm,-,N/A,,Clear,0,2012-12-24 20:53:00
4:53 PM,30.0,19.0,64,30.05,10.0,Calm,Calm,-,N/A,,Clear,0,2012-12-24 21:53:00
5:53 PM,27.0,19.9,75,30.04,10.0,Calm,Calm,-,N/A,,Clear,0,2012-12-24 22:53:00
6:53 PM,26.1,19.9,78,30.06,10.0,Calm,Calm,-,N/A,,Clear,0,2012-12-24 23:53:00
7:53 PM,27.0,21.0,78,30.05,10.0,Calm,Calm,-,N/A,,Clear,0,2012-12-25 00:53:00
8:53 PM,27.0,21.0,78,30.06,10.0,Calm,Calm,-,N/A,,Clear,0,2012-12-25 01:53:00
9:53 PM,28.0,23.0,81,30.04,10.0,Calm,Calm,-,N/A,,Clear,0,2012-12-25 02:53:00
10:53 PM,28.0,23.0,81,30.03,10.0,Calm,Calm,-,N/A,,Partly Cloudy,0,2012-12-25 03:53:00
11:53 PM,28.9,23.0,78,30.02,10.0,Calm,Calm,-,N/A,,Overcast,0,2012-12-25 04:53:00